Flag for U.S.A. Weather past 2 weeks in Ontario, Oregon, U.S.A.

Now
80 °F

Sunny.


Feels Like: 78 °F
Forecast: 51 / 87 °F
Wind: 5 mph from Southeast

Location: Ontario Municipal Airport

Current Time: Jul 28, 2015 at 7:00:57 PM

Latest Report: Jul 28, 2015 at 5:53 PM


Visibility: 8 mi

Pressure: 30.16 "Hg (27.98 "Hg at 656m altitude)

Humidity: 17%

Dew point: 31 °F

Location of OntarioLocation

Historic Weather in Ontario — Graph

°F

Ontario temperature yesterday

Maximum temperature yesterday: 78 °F (at 5:53 PM)
Minimum temperature yesterday: 57 °F (at 6:53 AM)
Average temperature yesterday: 68 °F

Past Weeks' High & Low Weather Summary

 TemperatureHumidityPressure
High98 °F (Jul 20, 4:53 PM)97% (Jul 23, 4:53 AM)30.26 "Hg (Jul 23, 4:53 AM)
Low45 °F (Jul 28, 6:53 AM)14% (Jul 20, 4:53 PM)29.62 "Hg (Jul 21, 6:53 PM)
Average75 °F39%29.91 "Hg
* Reported Jul 13 5:53 PM — Jul 28 5:53 PM, Ontario, Weather by CustomWeather, © 2015

Note: Actual official high and low records may vary slightly from our data, if they occured in-between our weather recording intervals... More about our weather records

Advertising

Ontario weather history for previous 24 hours

 ConditionsComfort  
Time TempWeatherWind HumidityBarometerVisibility
5:53 PM
Tue, Jul 28
80 °FSunny.5 mph17%30.16 "Hg8 mi
4:53 PM81 °FSunny.3 mph14%30.17 "Hg10 mi
3:53 PM80 °FSunny.7 mph16%30.19 "Hg10 mi
2:53 PM78 °FSunny.6 mph19%30.20 "Hg10 mi
1:53 PM77 °FSunny.3 mph19%30.22 "Hg10 mi
12:53 PM76 °FSunny.No wind23%30.22 "Hg10 mi
11:53 AM71 °FSunny.5 mph32%30.25 "Hg10 mi
10:53 AM68 °FSunny.3 mph36%30.25 "Hg10 mi
9:53 AM63 °FSunny.No wind43%30.26 "Hg10 mi
8:53 AM59 °FSunny.No wind48%30.25 "Hg10 mi
7:53 AM53 °FClear.6 mph61%30.24 "Hg10 mi
6:53 AM45 °FClear.6 mph74%30.24 "Hg10 mi
5:53 AM49 °FClear.No wind66%30.21 "Hg10 mi
4:53 AM50 °FClear.3 mph63%30.20 "Hg10 mi
3:53 AM52 °FClear.3 mph55%30.19 "Hg10 mi
2:53 AM58 °FClear.No wind44%30.18 "Hg10 mi
1:53 AM57 °FClear.5 mph46%30.17 "Hg10 mi
12:53 AM61 °FClear.5 mph38%30.16 "Hg10 mi
11:53 PM
Mon, Jul 27
59 °FClear.9 mph41%30.15 "Hg10 mi
10:53 PM60 °FSunny.7 mph39%30.14 "Hg10 mi
9:53 PM64 °FSunny.6 mph33%30.11 "Hg10 mi
8:53 PM71 °FSunny.13 mph27%30.08 "Hg10 mi
7:53 PM75 °FSunny.16 mph22%30.06 "Hg10 mi
Weather by CustomWeather, © 2015

See weather overviewHow to use our weather pages